Regional Weather Roundup
Issued by NWS

Home | Current Version | Previous Version | Graphics & Text | Print | Product List | Glossary On
Versions: 1 2 3 4 5 6 7 8 9 10 11 12 13 14 15 16 17 18 19 20 21 22 23 24 25 26 27 28 29 30 31 32 33 34 35 36 37 38 39 40 41 42 43 44 45 46 47 48 49 50
000
ASUS45 KPSR 281510
RWRAZ

ARIZONA REGIONAL HOURLY WEATHER ROUNDUP
NATIONAL WEATHER SERVICE PHOENIX AZ
800 AM MST THU AUG 28 2014

NOTE: FAIR INDICATES FEW OR NO CLOUDS BELOW 12,000 FEET WITH NO
SIGNIFICANT WEATHER AND/OR OBSTRUCTIONS TO VISIBILITY.

AZZ001>003-036-281600-
NORTHWEST ARIZONA

CITY           SKY/WX    TMP DP  RH WIND       PRES   REMARKS
BULLHEAD CITY  SUNNY     81  50  34 CALM      29.98R
KINGMAN        SUNNY     75  45  34 CALM      30.15R
$$

AZZ004>008-015-016-018-281600-
NORTH CENTRAL ARIZONA

CITY           SKY/WX    TMP DP  RH WIND       PRES   REMARKS
GRAND CANYON   SUNNY     46  43  89 CALM      30.37R
WILLIAMS       SUNNY     57  48  72 SE3       30.43R
PRESCOTT       SUNNY     66  54  65 CALM      30.26R
FLAGSTAFF      SUNNY     58  49  72 CALM      30.38R
PAYSON         SUNNY     70  52  52 CALM      30.26R
PAGE           SUNNY     70  44  39 CALM      30.23R
$$

AZZ009>014-017-281600-
NORTHEAST ARIZONA

CITY           SKY/WX    TMP DP  RH WIND       PRES   REMARKS
WINSLOW        SUNNY     64  55  72 W6        30.26R
SAINT JOHNS    SUNNY     64  53  67 S8        30.27F
SHOW LOW       SUNNY     61  48  63 CALM      30.35R
$$

AZZ023-281600-
GREATER PHOENIX AREA

CITY           SKY/WX    TMP DP  RH WIND       PRES   REMARKS
PHOENIX        MOSUNNY   88  61  40 E6        29.95R
BUCKEYE          N/A     82  61  47 NE5       29.96S
GLENDALE       MOSUNNY   88  57  35 N6        29.97R
LUKE AFB       NOT AVBL
DEER VALLEY    SUNNY     86  57  37 N7        29.97R
SCOTTSDALE     SUNNY     84  61  45 CALM      29.99R
MESA-FALCON    MOSUNNY   82  57  42 N12       29.97R
MESA-GATEWAY   MOSUNNY   84  57  39 VRB3      29.99R
CHANDLER       MOSUNNY   86  61  42 N8        29.96S
$$

AZZ027-028-281600-
SOUTHWEST MARICOPA COUNTY AND PINAL COUNTY

CITY           SKY/WX    TMP DP  RH WIND       PRES   REMARKS
CASA GRANDE    SUNNY     82  61  47 CALM      29.98S
GILA BEND      SUNNY     86  55  35 SE1       29.96R
$$

AZZ503-504-507>509-281600-
SOUTHEAST ARIZONA

CITY           SKY/WX    TMP DP  RH WIND       PRES   REMARKS
TUCSON         SUNNY     79  60  52 S7        30.07S
DAVIS-MONTHAN  SUNNY     80  60  51 SE5       30.05F
RYAN FIELD       N/A     75  63  64 CALM      30.05S
NOGALES        SUNNY     71  61  70 CALM      30.15R
SIERRA VISTA   SUNNY     75  57  53 CALM      30.21R
DOUGLAS        SUNNY     72  60  66 N5        30.17R
SAFFORD        SUNNY     74  55  51 SE7       30.09R
$$

AZZ020-021-025-026-031-281600-
SOUTHWEST ARIZONA

CITY           SKY/WX    TMP DP  RH WIND       PRES   REMARKS
YUMA           SUNNY     91  59  33 N5        29.89S
$$

CAZ031-033-041-043-047-048-061-281600-
SOUTHERN CALIFORNIA

CITY           SKY/WX    TMP DP  RH WIND       PRES   REMARKS
DOWNTOWN L.A.  SUNNY     75  56  51 CALM      29.99S
L.A. AIRPORT   MOSUNNY   73  63  70 W5        30.00S
SAN DIEGO      SUNNY     75  59  57 N3        30.00S
BURBANK        SUNNY     74  48  39 CALM      30.02R
ONTARIO        SUNNY     77  52  41 CALM      30.03R
RIVERSIDE      SUNNY     74  53  48 NE3       30.02F
PALM SPRINGS   SUNNY     85  55  35 W5        29.95R
EL CENTRO NAS  SUNNY     86  53  32 W7        29.89R
IMPERIAL       SUNNY     84  59  42 CALM      29.88R
BLYTHE         SUNNY     88  48  25 CALM      29.92R
NEEDLES        SUNNY     83  45  26 CALM      29.97R
$$

NVZ020-UTZ003-281600-
SOUTHERN NEVADA-UTAH

CITY           SKY/WX    TMP DP  RH WIND       PRES   REMARKS
LAS VEGAS      SUNNY     82  38  20 VRB3      30.04R
SALT LAKE CITY MOSUNNY   65  52  62 SE10      30.23R
$$

NMZ009-TXZ055-281600-
NEW MEXICO-WEST TEXAS

CITY           SKY/WX    TMP DP  RH WIND       PRES   REMARKS
ALBUQUERQUE    SUNNY     67  43  41 N8        30.25R
EL PASO        MOSUNNY   77  57  50 N6        30.12S
$$


........................KEY........................
SKY/WX - SKY CONDITION/WEATHER
TMP    - TEMPERATURE IN FAHRENHEIT
DP     - DEW POINT IN FAHRENHEIT
RH     - RELATIVE HUMIDITY IN PERCENT
WIND   - DIRECTION AND SPEED IN MILES PER HOUR (MPH)
VRB    - VARIABLE WIND DIRECTION
PRES   - MEAN SEA LEVEL PRESSURE IN INCHES OF MERCURY
         F - FALLING PRESSURE   R - RISING PRESSURE
         S - STEADY PRESSURE
VSB    - VISIBILITY IN MILES
HX     - HEAT INDEX IN FAHRENHEIT
WCI    - WIND CHILL INDEX IN FAHRENHEIT
TC     - TEMPERATURE IN CELSIUS WHICH IS ALSO KNOWN AS
         TEMPERATURE IN CENTIGRADE
AFB    - AIR FORCE BASE
         LUKE AFB IS LUKE AIR FORCE BASE
         DAVIS-MONTHAN IS DAVIS-MONTHAN AIR FORCE BASE
NAS    - NAVAL AIR STATION
         EL CENTRO NAS IS EL CENTRO NAVAL AIR STATION
N/A    - NOT AVAILABLE


USA.gov is the U.S. government's official web portal to all federal, state and local government web resources and services.